Weather History for PASI - October, 2012

Change the Weather History Date:

Wednesday, October 17, 2012

  Actual Average Record
Temperature  
Mean Temperature 40 °F -  
Max Temperature 45 °F 49 °F 56 °F (1958)
Min Temperature 37 °F 40 °F 30 °F (1949)
Degree Days  
Heating Degree Days 24    
Moisture  
Dew Point 37 °F    
Average Humidity 87    
Maximum Humidity 97    
Minimum Humidity 68    
Precipitation  
Precipitation 0.55 in - - ()
Sea Level Pressure  
Sea Level Pressure 29.74 in    
Wind  
Wind Speed 9 mph (ESE)    
Max Wind Speed 25 mph    
Max Gust Speed 32 mph    
Visibility 8 miles    
Events Rain    
Averages and records for this station are not official NWS values.
T = Trace of Precipitation, MM = Missing Value Source: NWS Daily Summary

Daily Weather History Graph

Daily Weather History Graph

Search for Another Location

Airport or City:

Trip Planner

Search our weather history database for the weather conditions in past years. The results will help you decide how hot, cold, wet, or windy it might be!

Date:

Astronomy

Oct. 17, 2012 Rise Set
Actual Time 7:40 AM AKDT 5:51 PM AKDT
Civil Twilight 7:01 AM AKDT 6:30 PM AKDT
Nautical Twilight 6:17 AM AKDT 7:14 PM AKDT
Astronomical Twilight 5:32 AM AKDT 7:59 PM AKDT
Moon 11:03 AM AKDT (10/17) 6:52 PM AKDT (10/17)
Length of Visible Light 11h 29m
Length of Day
10h 11m
Waxing Crescent, 8% of the Moon is Illuminated
Oct 17
Waxing Crescent
Oct 21
First Quarter
Oct 29
Full
Nov 6
Last Quarter
Nov 13
New

Hourly Weather History & Observations

Time (AKDT) Temp. Windchill Dew Point Humidity Pressure Visibility Wind Dir Wind Speed Gust Speed Precip Events Conditions
12:31 AM 39.2 °F 35.9 °F 37.4 °F 93% 29.92 in 10.0 mi East 4.6 mph - N/A   Mostly Cloudy
12:53 AM 39.0 °F 33.4 °F 37.0 °F 93% 29.93 in 10.0 mi East 8.1 mph - N/A   Mostly Cloudy
1:53 AM 39.9 °F 34.5 °F 37.9 °F 93% 29.93 in 10.0 mi ESE 8.1 mph - N/A   Overcast
2:06 AM 41.0 °F 36.4 °F 37.4 °F 87% 29.93 in 10.0 mi East 6.9 mph - N/A   Overcast
2:32 AM 39.2 °F 34.2 °F 37.4 °F 93% 29.92 in 10.0 mi East 6.9 mph - N/A   Overcast
2:53 AM 42.1 °F 35.2 °F 37.9 °F 85% 29.93 in 9.0 mi ESE 12.7 mph 17.3 mph 0.00 in Rain Light Rain
3:12 AM 41.0 °F 39.0 °F 35.6 °F 81% 29.93 in 10.0 mi Variable 3.5 mph - 0.01 in Rain Light Rain
3:43 AM 39.2 °F 34.2 °F 35.6 °F 87% 29.92 in 10.0 mi East 6.9 mph - 0.02 in   Overcast
3:53 AM 39.9 °F 34.5 °F 36.0 °F 86% 29.91 in 10.0 mi East 8.1 mph - 0.02 in   Overcast
4:53 AM 42.1 °F 34.9 °F 36.0 °F 79% 29.89 in 10.0 mi ESE 13.8 mph - 0.01 in   Overcast
5:53 AM 43.0 °F 36.0 °F 35.1 °F 74% 29.86 in 10.0 mi ESE 13.8 mph - N/A   Scattered Clouds
6:53 AM 44.1 °F 37.1 °F 34.0 °F 68% 29.82 in 10.0 mi ESE 15.0 mph - N/A   Scattered Clouds
7:53 AM 44.1 °F 37.1 °F 35.1 °F 71% 29.78 in 10.0 mi ESE 15.0 mph 20.7 mph N/A   Overcast
8:53 AM 44.1 °F 37.1 °F 36.0 °F 73% 29.74 in 10.0 mi ESE 15.0 mph 24.2 mph 0.00 in Rain Light Rain
9:53 AM 44.1 °F 37.4 °F 36.0 °F 73% 29.70 in 10.0 mi ESE 13.8 mph - 0.00 in Rain Light Rain
10:53 AM 44.1 °F 35.7 °F 37.0 °F 76% 29.66 in 8.0 mi ESE 20.7 mph 28.8 mph 0.01 in Rain Light Rain
11:53 AM 43.0 °F 33.3 °F 37.0 °F 80% 29.62 in 6.0 mi ESE 25.3 mph 32.2 mph 0.03 in Rain Light Rain
12:16 PM 42.8 °F 33.8 °F 37.4 °F 81% 29.61 in 5.0 mi ESE 21.9 mph 28.8 mph 0.02 in Rain Light Rain
12:53 PM 43.0 °F 35.4 °F 37.0 °F 80% 29.60 in 5.0 mi ESE 16.1 mph 29.9 mph 0.05 in Rain Light Rain
1:53 PM 41.0 °F 33.1 °F 37.0 °F 86% 29.61 in 4.0 mi ESE 15.0 mph 25.3 mph 0.13 in Rain Rain
2:53 PM 41.0 °F 33.9 °F 37.0 °F 86% 29.62 in 5.0 mi ESE 12.7 mph - 0.13 in Rain Rain
3:27 PM 39.2 °F 32.5 °F 37.4 °F 93% 29.61 in 10.0 mi East 10.4 mph - 0.02 in Rain Light Rain
3:53 PM 39.9 °F 32.5 °F 37.9 °F 93% 29.60 in 10.0 mi ESE 12.7 mph - 0.03 in Rain Light Rain
4:31 PM 39.2 °F 35.0 °F 37.4 °F 93% 29.62 in 4.0 mi SE 5.8 mph - 0.03 in Rain Rain
4:53 PM 39.9 °F 36.7 °F 37.9 °F 93% 29.62 in 5.0 mi Variable 4.6 mph - 0.06 in Rain Light Rain
5:53 PM 39.9 °F 35.8 °F 37.9 °F 93% 29.63 in 7.0 mi East 5.8 mph - 0.02 in Rain Light Rain
6:11 PM 39.2 °F 35.9 °F 37.4 °F 93% 29.64 in 5.0 mi East 4.6 mph - 0.02 in Rain Rain
6:22 PM 39.2 °F - 37.4 °F 93% 29.64 in 3.0 mi Calm Calm - 0.06 in Rain Heavy Rain
6:41 PM 39.2 °F 35.9 °F 37.4 °F 93% 29.64 in 10.0 mi East 4.6 mph - 0.06 in   Overcast
6:53 PM 39.0 °F 34.8 °F 37.0 °F 93% 29.64 in 10.0 mi East 5.8 mph - 0.06 in   Overcast
7:53 PM 37.9 °F 33.5 °F 37.0 °F 97% 29.65 in 10.0 mi East 5.8 mph - N/A   Mostly Cloudy
8:53 PM 37.9 °F 34.4 °F 36.0 °F 93% 29.66 in 10.0 mi East 4.6 mph - N/A   Clear
9:53 PM 37.9 °F 32.7 °F 36.0 °F 93% 29.68 in 10.0 mi East 6.9 mph - N/A   Partly Cloudy
10:53 PM 37.0 °F 31.6 °F 36.0 °F 96% 29.70 in 10.0 mi East 6.9 mph - N/A   Clear
11:53 PM 37.9 °F 33.5 °F 37.0 °F 97% 29.71 in 10.0 mi East 5.8 mph - 0.00 in   Mostly Cloudy